Location: Saluda
(35.2377°N, 82.3468°W)
Time: 04:00:13
(UTC+00:00)

Vanguard 2 Rocket - Pass Details

Date: 11 October 2022
Orbit: 555 x 3321 km, 32.9° (Epoch: 04 December)

Event Time Altitude Azimuth Distance (km) Brightness Sun altitude
Rises 02:15:11 0° 249° (WSW) 7,290 12.0 -39.8°
Reaches altitude 10° 02:20:09 10° 248° (WSW) 6,269 11.5 -40.8°
Enters shadow 02:39:11 74° 188° (S) 2,847 9.0 -44.2°
Maximum altitude 02:39:59 75° 167° (SSE) 2,797 - -44.4°
Drops below altitude 10° 02:52:57 10° 85° (E) 4,331 - -46.7°
Sets 02:55:42 0° 84° (E) 5,024 - -47.1°
